Flag for Poland Weather past 2 weeks in Bydgoszcz, Poland

Now
73 °F

Clear.


Feels Like: 77 °F
Forecast: 63 / 91 °F
Wind: 1 mph from Southeast

Location: Torun

Current Time: Jul 3, 2015 at 11:08:11 PM

Latest Report: Jul 3, 2015 at 10:00 PM


Visibility: 28 mi

Pressure: 30.30 "Hg

Humidity: 44%

Dew point: 50 °F

Location of BydgoszczLocation

Historic Weather in Bydgoszcz — Graph

°F

Bydgoszcz temperature yesterday

Maximum temperature yesterday: 80 °F (at 5:00 PM)
Minimum temperature yesterday: 52 °F (at 4:00 AM)
Average temperature yesterday: 68 °F

Past Weeks' High & Low Weather Summary

 TemperatureHumidityPressure
High87 °F (Jul 3, 4:00 PM)97% (Jun 22, 6:00 AM)30.41 "Hg (Jun 22, 6:00 AM)
Low44 °F (Jun 22, 5:00 AM)22% (Jul 3, 4:00 PM)29.64 "Hg (Jun 23, 4:00 AM)
Average62 °F69%30.05 "Hg
* Reported Jun 18 9:00 PM — Jul 3 9:00 PM, Bydgoszcz, Weather by CustomWeather, © 2015

Note: Actual official high and low records may vary slightly from our data, if they occured in-between our weather recording intervals... More about our weather records

Advertising

Bydgoszcz weather history for previous 24 hours

 ConditionsComfort  
Time TempWeatherWind HumidityBarometerVisibility
9:00 PM
Fri, Jul 3
78 °FSunny.1 mph33%30.30 "Hg31 mi
8:00 PM84 °FSunny.2 mph27%30.29 "Hg31 mi
7:00 PM86 °FSunny.3 mph24%30.29 "Hg31 mi
6:00 PM87 °FSunny.3 mph24%30.31 "Hg28 mi
5:00 PM87 °FSunny.5 mph24%30.32 "Hg28 mi
4:00 PM87 °FSunny.5 mph22%30.33 "Hg25 mi
3:00 PM86 °FSunny.5 mph23%30.34 "Hg25 mi
2:00 PM84 °FSunny.5 mph26%30.36 "Hg28 mi
1:00 PM83 °FSunny.3 mph28%30.37 "Hg22 mi
12:00 PM82 °FSunny.2 mph32%30.38 "Hg22 mi
11:00 AM81 °FSunny.3 mph29%30.40 "Hg22 mi
10:00 AM79 °FSunny.3 mph36%30.40 "Hg22 mi
9:00 AM75 °FSunny.3 mph43%30.41 "Hg22 mi
8:00 AM71 °FSunny.3 mph50%30.41 "Hg25 mi
7:00 AM67 °FSunny.2 mph56%30.40 "Hg25 mi
6:00 AM62 °FSunny.2 mph66%30.40 "Hg25 mi
4:00 AM60 °FClear.2 mph69%30.39 "Hg31 mi
3:00 AM62 °FClear.3 mph64%30.39 "Hg31 mi
2:00 AM63 °FClear.2 mph63%30.39 "Hg31 mi
1:00 AM64 °FClear.2 mph62%30.39 "Hg31 mi
12:00 AM65 °FClear.2 mph58%30.38 "Hg31 mi
Weather by CustomWeather, © 2015

See weather overviewHow to use our weather pages